Regional Weather Roundup
Issued by NWS

Home | Current Version | Previous Version | Text Only | Print | Product List | Glossary On
Versions: 1 2 3 4 5 6 7 8 9 10 11 12 13 14 15 16 17 18 19 20 21 22 23 24 25 26 27 28 29 30 31 32 33 34 35 36 37 38 39 40 41 42 43 44 45 46 47 48 49 50
000
ASUS45 KREV 060010
RWRNV
NEVADA REGIONAL WEATHER ROUNDUP
NATIONAL WEATHER SERVICE RENO NV
400 PM PST THU MAR 05 2015

NOTE: "FAIR" INDICATES FEW OR NO CLOUDS BELOW 12,000 FEET WITH NO
SIGNIFICANT WEATHER AND/OR OBSTRUCTIONS TO VISIBILITY.

NVZ001-003-004-060100-
WESTERN NEVADA

CITY           SKY/WX    TMP DP  RH WIND       PRES   REMARKS
RENO           MOSUNNY   61  14  16 E6        30.32F
6HR MIN TEMP:  42; 6HR MAX TEMP:  62;

CARSON CITY    FAIR      59  18  20 E12G18    30.33S
MINDEN         FAIR      59  16  18 NW7       30.33
SLIDE MTN        N/A     41  18  38 SW1         N/A
PYRAMID LAKE     N/A     48 N/A N/A VRB3        N/A
FALLON         MOSUNNY   58  11  15 CALM      30.34F
6HR MIN TEMP:  44; 6HR MAX TEMP:  59;

LOVELOCK       SUNNY     56  11  16 W5        30.35F
6HR MIN TEMP:  40; 6HR MAX TEMP:  56;

HAWTHORNE      SUNNY     57  16  19 N5        30.33F
$$

NVZ002-CAZ072-073-060100-
NORTHERN AND CENTRAL SIERRA

CITY           SKY/WX    TMP DP  RH WIND       PRES   REMARKS
S. LAKE TAHOE  SUNNY     55  14  19 N7        30.35S
6HR MIN TEMP:  43; 6HR MAX TEMP:  56;

TRUCKEE        SUNNY     55  16  21 W5        30.34S
                   6HR MAX TEMP:  55;

SQUAW VLY 8000   N/A     41  19  42 W5          N/A
BLUE CANYON    SUNNY     53  22  29 SW7       30.37S
MAMMOTH LAKES  FAIR      54  -4   9 E13       30.36R
BRIDGEPORT     FAIR      56  -4   8 S6        30.32S
$$

NVZ030-031-036-060100-
NORTHERN NEVADA

CITY           SKY/WX    TMP DP  RH WIND       PRES   REMARKS
ELKO           SUNNY     53  10  18 W8        30.35S
6HR MIN TEMP:  38; 6HR MAX TEMP:  55;

WINNEMUCCA     SUNNY     57   7  13 W7        30.35F
6HR MIN TEMP:  42; 6HR MAX TEMP:  58;

WENDOVER       SUNNY     48  25  40 CALM      30.40S
$$

NVZ035-037-060100-
CENTRAL NEVADA

CITY           SKY/WX    TMP DP  RH WIND       PRES   REMARKS
ELY            SUNNY     51  14  22 N8        30.36S
6HR MIN TEMP:  38; 6HR MAX TEMP:  52;

EUREKA           N/A     51  13  21 E3        30.36S
6HR MIN TEMP:  37; 6HR MAX TEMP:  51;

$$

NVZ013-014-060100-
SOUTH CENTRAL NEVADA

CITY           SKY/WX    TMP DP  RH WIND       PRES   REMARKS
TONOPAH        SUNNY     56   2  11 NW7       30.34F
6HR MIN TEMP:  41; 6HR MAX TEMP:  57;

$$

NVZ017-020-022-060100-
SOUTHERN NEVADA

CITY           SKY/WX    TMP DP  RH WIND       PRES   REMARKS
LAS VEGAS      SUNNY     65  20  17 CALM      30.26F
6HR MIN TEMP:  54; 6HR MAX TEMP:  65;

N. LAS VEGAS   SUNNY     63  21  20 SE3       30.29F
6HR MIN TEMP:  52; 6HR MAX TEMP:  64;

NELLIS AFB     SUNNY     64  26  23 E10       30.29F
6HR MIN TEMP:  55; 6HR MAX TEMP:  64;

HENDERSON      SUNNY     62  22  21 VRB5      30.31F
6HR MIN TEMP:  52; 6HR MAX TEMP:  62;

MERCURY        SUNNY     64  15  15 S5        30.29F
6HR MIN TEMP:  53; 6HR MAX TEMP:  65;

$$


USA.gov is the U.S. government's official web portal to all federal, state and local government web resources and services.